Regional Weather Roundup
Issued by NWS

Home | Current Version | Previous Version | Graphics & Text | Print | Product List | Glossary On
Versions: 1 2 3 4 5 6 7 8 9 10 11 12 13 14 15 16 17 18 19 20 21 22 23 24 25 26 27 28 29 30 31 32 33 34 35 36 37 38 39 40 41 42 43 44 45 46 47 48 49 50
023
ASUS43 KDTX 271710
RWRMI
MICHIGAN HOURLY REGIONAL WEATHER ROUNDUP
NATIONAL WEATHER SERVICE DETROIT/PONTIAC MI
100 PM EDT WED JUL 27 2016

NOTE: "FAIR" INDICATES FEW OR NO CLOUDS BELOW 12,000 FEET WITH NO
SIGNIFICANT WEATHER AND/OR OBSTRUCTION TO VISIBILITY.

MIZ047>049-052>055-059>063-066>070-074>076-081>083-271800-
SOUTHEAST LOWER MICHIGAN

CITY           SKY/WX    TMP DP  RH WIND       PRES   REMARKS
ADRIAN         MOSUNNY   85  63  47 MISG      30.02S
ALMA           SUNNY     86  70  58 S12G20    29.99S HX  90
ANN ARBOR      SUNNY     87  63  44 CALM      30.00F
BAD AXE        SUNNY     85  64  48 W10G16    29.97S
CARO           SUNNY     88  67  49 W12       29.97S HX  90
DETROIT CITY   MOSUNNY   86  63  45 W8        29.99F
DETROIT        MOSUNNY   87  61  41 VRB3      30.00F
FLINT          SUNNY     90  61  37 SW8       29.99F HX  90
GROSSE ILE     SUNNY     83  67  59 S8        29.99S
HILLSDALE      SUNNY     81  63  53 S5        30.03S
HOWELL         SUNNY     85  60  41 SW9       30.01S

CITY           SKY/WX    TMP DP  RH WIND       PRES   REMARKS
JACKSON        MOSUNNY   84  60  44 VRB3      30.02S
LAMBERTVILLE   MOSUNNY   87  62  42 S3        30.01F
LANSING        SUNNY     85  61  44 SW8       30.01S
LAPEER         FAIR      87  58  37 SW8       30.00R
MASON          SUNNY     83  64  52 SW5       30.01F
MONROE         MOSUNNY   85  66  53 SW6       30.00S
MT. CLEMENS    MOSUNNY   88  65  46 SW8       29.97F
PONTIAC        MOSUNNY   87  62  43 W8        30.00F
PORT HOPE        N/A     82  69  64 NW5       29.95S
PORT HURON     SUNNY     84  64  51 W6        29.98F
TRI CITIES     SUNNY     85  68  56 SW8       29.98S
MIDLAND        FAIR      85  68  55 W6        29.97S
TROY           MOSUNNY   87  57  35 S6        30.02S
SAGINAW HB     SUNNY     86  64  48 SW8       29.97S
$$
MIZ043>046-050>051-056>058-064>065-071>073-077>080-271800-
SOUTHWEST LOWER MICHIGAN

CITY           SKY/WX    TMP DP  RH WIND       PRES   REMARKS
BATTLE CREEK   SUNNY     81  59  47 W5        30.03S
BENTON HARBOR  SUNNY     83  64  52 NW6       30.02R
BIG RAPIDS     SUNNY     85  72  63 W5        29.99S HX  91
COLDWATER      SUNNY     83  63  50 W5        30.03S
FREMONT        FAIR      85  71  63 W8        29.99S HX  90
HOLLAND        MOSUNNY   82  68  62 VRB7      30.03R
GRAND RAPIDS   PTSUNNY   83  66  56 SW8       30.01S
IONIA          FAIR      84  62  48 SW8       30.00S
KALAMAZOO      SUNNY     84  61  45 VRB6      30.02R
LUDINGTON      PTSUNNY   78  70  76 W13G18    30.00R
MARSHALL       SUNNY     85  63  48 SW5       30.02S
MOUNT PLEASANT SUNNY     88  69  53 SW8       29.97S HX  91
MUSKEGON       PTSUNNY   83  69  62 SW10      30.00S
SOUTH HAVEN    SUNNY     83  65  54 W7        30.02S
$$
MIZ016>042-271800-
NORTHERN LOWER MICHIGAN

CITY           SKY/WX    TMP DP  RH WIND       PRES   REMARKS
ALPENA         SUNNY     88  60  38 CALM      29.96S
BEAVER ISLAND  PTSUNNY   78  68  70 NW3       29.99S
BELLAIRE       CLOUDY    82  67  60 N5        29.97S
CADILLAC       CLOUDY    85  68  56 CALM      30.00S
CHARLEVOIX     CLOUDY    77  66  69 NW9       30.02R
FRANKFORT      SUNNY     81  68  65 W8        30.00R
GAYLORD        MOSUNNY   84  55  36 NW7       30.01R
GRAYLING       PTSUNNY   89  56  32 W7        29.99S
HARBOR SPRINGS CLOUDY    77  69  75 SW9       29.98S
HOUGHTON LAKE  MOSUNNY   83  65  54 SW6       30.00S
MANISTEE       MOSUNNY   81  70  69 NW15      29.99R
OSCODA         SUNNY     86  64  48 E6        29.95R
PELLSTON       CLOUDY    82  64  54 N7        29.98S
ROGERS CITY    MOSUNNY   75  65  70 N7        29.98S
TRAVERSE CITY  LGT RAIN  85  64  49 NE8       29.95S
$$
MIZ007>008-015-271800-
EASTERN UPPER MICHIGAN

CITY           SKY/WX    TMP DP  RH WIND       PRES   REMARKS
KINROSS        MOSUNNY   75  66  73 W8        29.99R
MACKINAC ISLAN MOSUNNY   74  65  71 SW6       29.98S
NEWBERRY       CLOUDY    75  68  78 CALM      29.99R
S. S. MARIE    SUNNY     78  68  71 W7        29.97R
MUNISING         N/A     70  66  87 NW12      30.00R
$$
MIZ004>006-011>014-085-271800-
CENTRAL UPPER MICHIGAN

CITY           SKY/WX    TMP DP  RH WIND       PRES   REMARKS
MANISTIQUE     CLOUDY    73  70  88 SW5       29.99S
ESCANABA       CLOUDY    75  64  69 SW6       29.99R
MENOMINEE      LGT RAIN N/A N/A N/A N6        30.03R
SAWYER-GWINN   SUNNY     73  63  68 N9        30.02S
$$
MIZ001>003-009>011-084-271800-
WESTERN UPPER MICHIGAN

CITY           SKY/WX    TMP DP  RH WIND       PRES   REMARKS
IRON MOUNTAIN  CLOUDY    71  65  81 NW8       30.01F
HOUGHTON       CLOUDY    68  57  68 SE7       30.04R
COPPER HARBOR    N/A     63  55  75 VRB6      30.04R
IRONWOOD       CLOUDY    70  66  88 S5        30.00R
$$

ABBREVIATIONS USED IN REMARKS
   TC - TEMPERATURE IN CELSIUS
  WCI - WIND CHILL INDEX
   HX - HEAT INDEX
  VSB - VISIBILITY





USA.gov is the U.S. government's official web portal to all federal, state and local government web resources and services.